| time (UTC) | temp F | wind direction | speed knots | gust knots | rain 1hr in | rain 24hr in | rain mn in | humidity % | barometer mb |
| 20260902221403 | 91 | 8 | 5.2 | 13.9 | 0.08 | 0.17 | 0.05 | 61 | 1011.9 |
| 20260902215902 | 93 | 148 | 3.5 | 12.2 | 0.00 | 0.26 | 0.01 | 52 | 1011.2 |
| 20260902214403 | 93 | 185 | 4.3 | 15.6 | 0.00 | 0.33 | 0.01 | 52 | 1011.3 |
| 20260902212902 | 93 | 190 | 4.3 | 15.6 | 0.00 | 0.33 | 0.01 | 52 | 1011.2 |
| 20260902212759 | 94 | 135 | 5.2 | 13.9 | 0.00 | 0.33 | 0.01 | 53 | 1011.4 |
| 20260902211634 | 94 | 166 | 4.3 | 11.3 | 0.00 | 0.33 | 0.01 | 53 | 1011.7 |
| 20260902211233 | 95 | 159 | 5.2 | 17.4 | 0.00 | 0.33 | 0.01 | 51 | 1011.7 |
| 20260902202901 | 95 | 155 | 8.7 | 15.6 | 0.00 | 0.33 | 0.01 | 52 | 1011.9 |
| 20260902201400 | 94 | 127 | 6.1 | 15.6 | 0.00 | 0.33 | 0.01 | 53 | 1012.2 |
| 20260902195900 | 94 | 176 | 3.5 | 20.9 | 0.00 | 0.33 | 0.01 | 53 | 1012.0 |
| 20260902194401 | 94 | 147 | 7.0 | 15.6 | 0.00 | 0.33 | 0.01 | 54 | 1012.4 |
| 20260902193555 | 93 | 197 | 3.5 | 13.9 | 0.00 | 0.33 | 0.01 | 54 | 1012.7 |
| 20260902191400 | 93 | 223 | 7.8 | 19.1 | 0.00 | 0.33 | 0.01 | 56 | 1012.8 |
| 20260902185900 | 93 | 195 | 2.6 | 13.9 | 0.00 | 0.33 | 0.01 | 58 | 1012.9 |
| 20260902184358 | 92 | 212 | 3.5 | 17.4 | 0.00 | 0.33 | 0.01 | 58 | 1013.2 |
| 20260902182858 | 92 | 252 | 4.3 | 17.4 | 0.00 | 0.33 | 0.01 | 63 | 1013.5 |
| 20260902181357 | 91 | 144 | 4.3 | 9.6 | 0.00 | 0.33 | 0.01 | 64 | 1013.8 |
| 20260902175855 | 90 | 162 | 3.5 | 11.3 | 0.00 | 0.33 | 0.01 | 67 | 1014.2 |
| 20260902174353 | 89 | 258 | 1.7 | 11.3 | 0.00 | 0.33 | 0.01 | 69 | 1014.5 |
| 20260902173545 | 89 | 276 | 5.2 | 11.3 | 0.00 | 0.33 | 0.01 | 70 | 1014.8 |
| 20260902171349 | 87 | 195 | 4.3 | 12.2 | 0.00 | 0.33 | 0.01 | 71 | 1015.0 |
| 20260902165847 | 87 | 261 | 4.3 | 19.1 | 0.00 | 0.33 | 0.01 | 72 | 1015.3 |
| 20260902164345 | 86 | 290 | 2.6 | 9.6 | 0.00 | 0.33 | 0.01 | 74 | 1015.4 |
| 20260902162844 | 85 | 258 | 3.5 | 13.9 | 0.00 | 0.33 | 0.01 | 75 | 1015.4 |
| 20260902161341 | 85 | 264 | 2.6 | 12.2 | 0.00 | 0.33 | 0.01 | 76 | 1015.5 |
| 20260902155840 | 85 | 168 | 3.5 | 12.2 | 0.00 | 0.33 | 0.01 | 78 | 1015.3 |
| 20260902154337 | 84 | 259 | 5.2 | 20.9 | 0.00 | 0.33 | 0.01 | 79 | 1015.3 |
| 20260902152835 | 83 | 235 | 3.5 | 11.3 | 0.00 | 0.33 | 0.01 | 80 | 1015.3 |
| 20260902152044 | 83 | 275 | 5.2 | 13.9 | 0.00 | 0.33 | 0.01 | 82 | 1015.1 |
| 20260902150534 | 82 | 262 | 2.6 | 11.3 | 0.00 | 0.33 | 0.01 | 83 | 1015.3 |
| 20260902144331 | 81 | 258 | 1.7 | 12.2 | 0.00 | 0.33 | 0.01 | 83 | 1015.2 |
| 20260902143528 | 81 | 265 | 4.3 | 12.2 | 0.00 | 0.33 | 0.01 | 84 | 1015.3 |
| 20260902141331 | 81 | 275 | 1.7 | 13.9 | 0.00 | 0.33 | 0.01 | 84 | 1015.1 |
| 20260902135831 | 81 | 296 | 2.6 | 12.2 | 0.00 | 0.33 | 0.01 | 85 | 1014.9 |
| 20260902134331 | 81 | 251 | 2.6 | 9.6 | 0.00 | 0.33 | 0.01 | 85 | 1015.1 |
| 20260902132831 | 80 | 272 | 2.6 | 9.6 | 0.00 | 0.33 | 0.01 | 85 | 1014.9 |
| 20260902131330 | 80 | 251 | 3.5 | 11.3 | 0.00 | 0.33 | 0.01 | 85 | 1014.8 |
| 20260902125832 | 80 | 268 | 1.7 | 11.3 | 0.00 | 0.33 | 0.01 | 85 | 1014.6 |
| 20260902125042 | 80 | 255 | 2.6 | 11.3 | 0.00 | 0.33 | 0.01 | 85 | 1014.2 |
| 20260902122831 | 80 | 288 | 3.5 | 15.6 | 0.00 | 0.33 | 0.01 | 85 | 1014.0 |
| 20260902121332 | 80 | 188 | 5.2 | 13.9 | 0.00 | 0.33 | 0.01 | 85 | 1013.5 |
| 20260902115831 | 80 | 238 | 4.3 | 13.9 | 0.00 | 0.33 | 0.01 | 85 | 1013.2 |
| 20260902115023 | 81 | 254 | 6.1 | 20.9 | 0.00 | 0.33 | 0.01 | 85 | 1013.1 |
| 20260902112831 | 81 | 269 | 5.2 | 20.9 | 0.00 | 0.33 | 0.01 | 84 | 1012.9 |
| 20260902111329 | 81 | 240 | 5.2 | 17.4 | 0.00 | 0.33 | 0.01 | 84 | 1012.8 |
| 20260902105827 | 81 | 252 | 4.3 | 13.9 | 0.00 | 0.33 | 0.01 | 85 | 1012.9 |
| 20260902104325 | 80 | 231 | 5.2 | 11.3 | 0.00 | 0.33 | 0.01 | 85 | 1012.8 |
| 20260902102823 | 80 | 237 | 3.5 | 11.3 | 0.00 | 0.33 | 0.01 | 85 | 1012.9 |
| 20260902102011 | 80 | 264 | 1.7 | 9.6 | 0.00 | 0.33 | 0.01 | 86 | 1013.0 |
| 20260902095819 | 79 | 247 | 5.2 | 9.6 | 0.01 | 0.32 | 0.01 | 85 | 1013.0 |
| 20260902094318 | 78 | 261 | 1.7 | 9.6 | 0.01 | 0.32 | 0.01 | 84 | 1013.1 |
| 20260902092815 | 78 | 258 | 5.2 | 12.2 | 0.01 | 0.32 | 0.01 | 84 | 1013.2 |
| 20260902091314 | 79 | 251 | 3.5 | 11.3 | 0.01 | 0.32 | 0.01 | 83 | 1013.0 |
| 20260902090506 | 79 | 207 | 2.6 | 11.3 | 0.00 | 0.32 | 0.00 | 82 | 1013.0 |
| 20260902084309 | 79 | 240 | 2.6 | 11.3 | 0.00 | 0.32 | 0.00 | 81 | 1012.9 |
| 20260902082807 | 79 | 247 | 1.7 | 9.6 | 0.00 | 0.32 | 0.00 | 81 | 1013.1 |
| 20260902081305 | 79 | 243 | 3.5 | 9.6 | 0.00 | 0.32 | 0.00 | 80 | 1013.0 |
| 20260902075804 | 79 | 295 | 3.5 | 7.8 | 0.00 | 0.32 | 0.00 | 81 | 1013.1 |
| 20260902075006 | 79 | 254 | 0.9 | 9.6 | 0.00 | 0.32 | 0.00 | 81 | 1013.1 |
| 20260902072805 | 79 | 248 | 4.3 | 9.6 | 0.00 | 0.32 | 0.00 | 82 | 1013.2 |
| 20260902071302 | 79 | 252 | 5.2 | 9.6 | 0.00 | 0.32 | 0.00 | 82 | 1013.3 |
| 20260902065805 | 79 | 247 | 4.3 | 11.3 | 0.00 | 0.32 | 0.00 | 82 | 1013.3 |
| 20260902064302 | 79 | 238 | 1.7 | 12.2 | 0.00 | 0.32 | 0.00 | 83 | 1013.3 |
| 20260902062804 | 78 | 272 | 5.2 | 12.2 | 0.00 | 0.32 | 0.00 | 84 | 1013.2 |
| 20260902061302 | 78 | 259 | 1.7 | 7.8 | 0.00 | 0.32 | 0.00 | 85 | 1013.4 |
| 20260902055803 | 78 | 262 | 4.3 | 11.3 | 0.00 | 0.32 | 0.00 | 85 | 1013.2 |
| 20260902054302 | 78 | 243 | 4.3 | 13.9 | 0.00 | 0.32 | 0.00 | 85 | 1013.0 |
| 20260902052804 | 78 | 259 | 3.5 | 7.8 | 0.00 | 0.32 | 0.00 | 86 | 1012.9 |
| 20260902051302 | 78 | 200 | 1.7 | 11.3 | 0.00 | 0.32 | 0.00 | 86 | 1013.2 |
| 20260902045804 | 78 | 266 | 3.5 | 9.6 | 0.00 | 0.32 | 0.32 | 87 | 1013.1 |
| 20260902045004 | 78 | 272 | 3.5 | 9.6 | 0.00 | 0.32 | 0.32 | 87 | 1013.3 |
| 20260902042758 | 78 | 252 | 1.7 | 9.6 | 0.00 | 0.32 | 0.32 | 87 | 1013.2 |
| 20260902041256 | 78 | 257 | 2.6 | 7.8 | 0.00 | 0.32 | 0.32 | 88 | 1013.1 |
| 20260902035754 | 78 | 250 | 2.6 | 7.8 | 0.00 | 0.32 | 0.32 | 88 | 1013.2 |
| 20260902034252 | 78 | 306 | 0.9 | 2.6 | 0.00 | 0.32 | 0.32 | 88 | 1013.3 |
| 20260902032752 | 78 | 306 | 1.7 | 2.6 | 0.00 | 0.32 | 0.32 | 88 | 1013.3 |
| 20260902031252 | 78 | 307 | 0.9 | 1.7 | 0.00 | 0.32 | 0.32 | 89 | 1013.4 |
| 20260902030448 | 78 | 307 | 0.0 | 1.7 | 0.00 | 0.32 | 0.32 | 88 | 1013.3 |
| 20260902024248 | 78 | 307 | 0.0 | 2.6 | 0.00 | 0.32 | 0.32 | 88 | 1013.1 |
| 20260902023446 | 78 | 307 | 0.9 | 2.6 | 0.00 | 0.32 | 0.32 | 88 | 1012.9 |
| 20260902021245 | 78 | 305 | 0.0 | 1.7 | 0.00 | 0.32 | 0.32 | 88 | 1012.7 |
| 20260902015745 | 78 | 305 | 0.0 | 2.6 | 0.00 | 0.32 | 0.32 | 88 | 1012.5 |
| 20260902014241 | 78 | 305 | 0.9 | 2.6 | 0.00 | 0.32 | 0.32 | 88 | 1012.6 |
| 20260902012741 | 78 | 305 | 0.9 | 2.6 | 0.00 | 0.32 | 0.32 | 88 | 1012.4 |
| 20260902011237 | 78 | 305 | 0.0 | 2.6 | 0.00 | 0.32 | 0.32 | 89 | 1012.4 |
| 20260902005741 | 78 | 305 | 0.0 | 1.7 | 0.00 | 0.32 | 0.32 | 89 | 1012.4 |
| 20260902004235 | 78 | 305 | 0.0 | 1.7 | 0.00 | 0.32 | 0.32 | 89 | 1012.5 |
| 20260902002736 | 78 | 305 | 0.0 | 2.6 | 0.00 | 0.32 | 0.32 | 89 | 1012.6 |
| 20260902001234 | 78 | 305 | 0.0 | 2.6 | 0.01 | 0.32 | 0.32 | 89 | 1012.8 |
| 20260901235736 | 78 | 305 | 0.9 | 1.7 | 0.06 | 0.27 | 0.32 | 89 | 1012.7 |
| 20260901234234 | 78 | 305 | 0.0 | 1.7 | 0.09 | 0.27 | 0.32 | 89 | 1012.6 |
| 20260901233444 | 78 | 305 | 0.0 | 2.6 | 0.14 | 0.27 | 0.32 | 88 | 1012.6 |
| 20260901231233 | 78 | 358 | 1.7 | 2.6 | 0.16 | 0.27 | 0.30 | 88 | 1012.9 |
| 20260901230429 | 77 | 358 | 0.0 | 4.3 | 0.22 | 0.07 | 0.26 | 87 | 1013.2 |
| 20260901224232 | 78 | 358 | 1.7 | 6.1 | 0.23 | 0.07 | 0.23 | 87 | 1013.6 |
| 20260901222734 | 78 | 351 | 2.6 | 6.1 | 0.18 | 0.07 | 0.18 | 86 | 1013.9 |